[Date Prev][Date Next][Thread Prev][Thread Next] - [Date Index][Thread Index][Author Index]

2 Line ISS Keps 12-29



ISS
1 25544U 98067A   05363.04368367  .00018566  00000-0  13416-3 0   427
2 25544 051.6445 342.1815 0010824 092.1238 312.7360 15.73491037406351
----
Via the sarex mailing list at AMSAT.ORG courtesy of AMSAT-NA.
To unsubscribe, send "unsubscribe sarex" to Majordomo@amsat.org



AMSAT Top AMSAT Home